Probability
0 0 0 0 0 0 0 0 0 0 0 0 0 0 0 0 0 0 0 0 0 0 0 0 0 0 0 0 0 0 0 0 0 0 0 0 0 0 0 0 0 0 0
0 0 0 0 0 0 0 0 0 0 0 0 0 0 0 0 0 0 0 0 0 0 0 0 0 0 0 0 0 0 0 0 0 0 0 0 0 0 0 0 0 0 0
0 0 0 0 0 0 0 0 0 0 0 0 0 0 0 0 0 0 0 0 0 0 0 0 0 0 0 0 0 0 0 0 0 0 0 0 0 0 0 0 0 0 0
0 0 0 0 0 0 0 0 0 0 0 0 0 0 0 0 0 0 0 0 0 0 0 0 0 0 0 0 0 0 0 0 0 0 0 0 0 0 0 0 0 0 0
0 0 0 0 0 0 0 0 0 0 0 0 0 0 0 0 0 0 0 0 0 0 0 0 0 0 0 0 0 0 0 0 0 0 0 0 0 0 0 0 0 0 0
0 0 0 0 0 0 0 0 0 0 0 0 0 0 0 0 0 0 0 0 0 0 0 0 0 0 0 0 0 0 0 0 0 0 0 0 0 0 0 0 0 0 0
0 0 0 0 0 0 0 0 0 0 0 0 0 0 0 0 0 0 0 0 0 0 0 0 0 0 0 0 0 0 0 0 0 0 0 0 0 0 0 0 0 0 0
0 0 0 0 0 0 0 0 0 0 0 0 0 0 0 0 0 0 0 0 0 0 0 0 0 0 0 0 0 0 0 0 0 0 0 0 0 0 0 0 0 0 0
0 0 0 0 0 0 0 0 0 0 0 0 0 0 0 0 0 0 0 0 0 0 0 0 0 0 0 0 0 0 0 0 0 0 0 0 0 0 0 0 0 0 0
0 0 0 0 0 0 0 0 0 0 0 0 0 0 0 0 0 0 0 0 0 0 0 0 0 0 0 0 0 0 0 0 0 0 0 0 0 0 0 0 0 0 0
0 0 0 0 0 0 0 0 0 0 0 0 0 0 0 0 0 0 0 0 0 0 0 0 0 0 0 0 0 0 0 0 0 0 0 0 0 0 0 0 0 0 0
0 0 0 0 0 0 0 0 0 0 0 0 0 0 0 0 0 0 0 0 0 0 0 0 0 0 0 0 0 0 0 0 0 0 0 0 0 0 0 0 0 0 0
0 0 0 0 0 0 0 0 0 0 0 0 0 0 0 0 0 0 0 0 0 0 0 0 0 0 0 0 0 0 0 0 0 0 0 0 0 0 0 0 0 0 0
0 0 0 0 0 0 0 0 0 0 0 0 0 0 0 0 0 0 0 0 0 0 0 0 0 0 0 0 0 0 0 0 0 0 0 0 0 0 0 0 0 0 0
0 0 0 0 0 0 0 0 0 0 0 0 0 0 0 0 0 0 0 0 0 0 0 0 0 0 0 0 0 0 0 0 0 0 0 0 0 0 0 0 0 0 0
0 0 0 0 0 0 0 0 0 0 0 0 0 0 0 0 0 0 0 0 0 0 0 0 0 0 0 0 0 0 0 0 0 0 0 0 0 0 0 0 0 0 0
0 0 0 0 0 0 0 0 0 0 0 0 0 0 0 0 0 0 0 0 0 0 0 0 0 0 0 0 0 0 0 0 0 0 0 0 0 0 0 0 0 0 0
0 0 0 0 0 0 0 0 0 0 0 0 0 0 0 0 0 0 0 0 0 0 0 0 0 0 0 0 0 0 0 0 0 0 0 0 0 0 0 0 0 0 0
0 0 0 0 0 0 0 0 0 0 0 0 0 0 0 0 0 0 0 0 0 0 0 0 0 0 0 0 0 0 0 0 0 0 0 0 0 0 0 0 0 0 0
0 0 0 0 0 0 0 0 0 0 0 0 0 0 0 0 0 0 0 0 0 0 0 0 0 0 0 0 0 0 0 0 0 0 0 0 0 0 0 0 0 0 0
0 0 0 0 0 0 0 0 0 0 0 0 0 0 0 0 0 0 0 0 0 0 0 0 0 0 0 0 0 0 0 0 0 0 0 0 0 0 0 0 0 0 0
0 0 0 0 0 0 0 0 0 0 0 0 0 0 0 0 0 0 0 0 0 0 0 0 0 0 0 0 0 0 0 0 0 0 0 0 0 0 0 0 0 0 0
0 0 0 0 0 0 0 0 0 0 0 0 0 0 0 0 0 0 0 0 0 0 0 0 0 0 0 0 0 0 0 0 0 0 0 0 0 0 0 0 0 0 0
0 0 0 0 0 0 0 0 0 0 0 0 0 0 0 0 0 0 0 0 0 0 0 0 0 0 0 0 0 0 0 0 0 0 0 0 0 0 0 0 0 0 0
0 0 0 0 0 0 0 0 0 0 0 0 0 0 0 0 0 0 0 0 0 0 0 0 0 0 0 0 0 0 0 0 0 0 0 0 0 0 0 0 0 0 0
0 0 0 0 0 0 0 0 0 0 0 0 0 0 0 0 0 0 0 0 0 0 0 0 0 0 0 0 0 0 0 0 0 0 0 0 0 0 0 0 0 0 0
Wind_Speed
2 2 2 2 2 2 2 3 3 3 3 4 4 5 5 5 5 5 5 5 6 5 5 6 6 5 4 4 3 3 4 4 5 5 2 2 3 3 3 3 4 4 4
2 1 2 2 1 2 2 2 2 3 3 4 4 4 5 5 5 6 6 6 6 6 6 6 6 5 5 4 4 5 4 4 5 6 4 2 3 3 3 4 4 4 4
1 2 2 2 2 3 3 3 2 3 3 3 4 5 5 5 5 5 6 6 6 7 6 7 7 6 6 5 5 5 4 4 4 4 5 3 2 2 3 3 4 3 4
1 2 2 3 3 3 3 2 2 3 3 3 4 5 5 5 5 5 5 6 6 6 6 7 7 7 7 6 5 6 4 4 4 4 4 3 3 2 1 3 4 3 4
1 2 3 2 2 2 2 2 2 2 3 3 3 4 4 4 5 5 6 6 6 6 6 6 6 7 8 7 6 6 5 5 4 4 4 3 3 2 3 3 4 4 4
1 2 2 1 2 2 3 3 2 2 2 2 3 4 4 4 7 9 7 6 6 6 6 6 6 7 7 10 10 10 9 7 7 6 5 6 6 5 3 3 3 3 4
1 2 2 2 2 3 3 2 3 3 2 3 3 4 4 6 8 9 9 6 6 6 6 6 5 5 6 6 8 9 9 11 11 8 8 8 7 6 4 4 5 5 6
2 2 2 2 3 3 2 3 3 3 3 3 4 4 4 6 9 9 9 6 5 5 6 6 6 6 6 6 6 6 7 7 9 7 7 8 7 5 5 6 6 5 4
2 3 3 2 3 3 3 4 3 3 3 4 4 4 5 6 8 8 7 3 4 5 5 5 6 6 8 9 7 6 7 6 8 9 9 9 9 9 6 3 3 3 5
3 3 3 3 3 4 4 4 3 3 4 3 4 4 5 5 7 8 7 3 3 3 3 4 6 6 8 9 7 6 8 7 5 5 6 8 7 7 9 7 5 5 4
3 3 3 3 4 4 4 3 3 3 3 3 4 4 4 5 7 7 7 3 3 3 4 3 4 8 9 9 8 6 8 6 4 5 4 4 4 4 5 5 6 5 5
2 3 4 4 3 3 3 3 3 3 3 3 3 4 3 3 4 6 7 7 5 4 4 3 4 8 9 9 8 8 9 6 3 3 4 4 4 4 4 4 5 6 6
2 3 3 3 3 3 3 3 2 2 3 3 3 4 4 3 4 6 7 7 7 4 4 6 7 8 8 6 8 8 5 4 3 4 5 5 4 4 3 2 3 4 4
3 3 3 3 3 3 2 2 3 3 3 3 3 4 4 3 3 3 3 3 4 4 3 4 6 6 5 5 4 4 3 3 4 5 5 4 2 2 3 3 3 2 3
3 3 3 3 3 3 3 3 3 4 4 4 4 4 4 4 5 7 5 3 3 3 3 2 1 2 2 2 2 2 2 3 4 4 3 3 3 3 3 2 3 2 3
3 3 3 3 3 3 3 3 5 5 7 7 7 5 4 6 8 8 7 6 5 4 2 1 2 2 3 3 3 3 3 3 3 3 3 3 3 4 3 3 3 4 5
4 4 3 3 3 3 2 3 4 5 5 6 6 7 6 7 7 7 6 5 4 2 1 2 2 3 3 3 3 3 4 3 3 3 3 3 3 3 3 4 4 4 4
3 3 3 3 3 3 3 3 3 3 4 4 5 6 7 6 6 6 5 3 2 2 1 2 3 3 3 3 3 3 4 3 3 3 3 3 3 4 4 4 4 5 5
3 2 2 2 2 2 2 2 2 3 3 3 3 4 5 5 5 4 3 1 2 2 2 2 2 3 3 3 3 3 4 4 3 3 3 4 4 4 4 4 4 5 5
2 3 3 2 2 2 2 2 2 2 2 2 3 3 3 3 2 2 2 2 2 2 3 3 3 3 3 3 3 3 3 4 4 4 4 4 4 4 4 5 4 4 4
2 2 2 2 2 2 2 2 2 2 2 3 3 3 4 2 2 3 2 2 3 3 3 3 3 3 3 3 3 4 4 4 4 4 4 4 4 4 4 4 4 4 4
2 1 1 2 2 2 2 2 2 2 3 3 3 3 5 2 2 3 3 3 3 3 3 3 4 3 3 3 3 4 4 4 4 4 4 4 4 4 4 4 4 4 4
1 1 1 2 2 2 2 1 2 2 3 3 3 3 3 2 3 3 4 4 3 3 3 3 4 4 3 3 3 4 4 5 4 4 4 4 4 4 4 4 5 5 5
1 1 2 2 1 1 2 2 2 2 2 3 3 3 3 3 4 4 4 4 4 4 4 3 4 5 6 4 4 4 4 5 4 4 5 5 5 4 4 4 4 5 5
1 1 1 1 1 1 2 2 2 2 3 3 3 3 4 4 4 4 4 4 4 4 5 5 4 5 6 7 6 6 7 7 6 4 4 4 5 5 4 5 4 4 4
1 1 1 1 1 2 2 2 3 3 3 3 3 4 4 4 4 5 4 4 4 5 5 5 5 6 7 6 7 8 8 7 7 6 4 3 4 4 4 4 4 4 4
Wind_Direction
201 208 219 233 235 237 238 236 230 226 222 221 220 221 221 221 214 212 215 212 217 224 220 218 227 222 222 223 220 221 221 214 242 265 253 259 242 259 278 272 271 267 269
223 212 227 246 248 252 256 257 254 241 233 228 224 225 227 225 218 216 218 216 218 223 224 222 228 224 224 223 219 223 225 218 226 255 267 260 254 255 264 271 277 273 270
213 207 223 240 241 252 262 260 253 249 243 233 224 226 229 228 223 223 222 221 221 225 224 224 228 222 226 225 221 223 225 229 229 241 261 264 267 267 279 280 280 279 276
215 215 229 244 250 256 265 264 258 251 244 237 232 230 230 231 230 227 223 228 228 229 230 228 227 224 226 223 223 223 220 224 226 237 254 263 264 261 253 270 283 272 273
225 237 244 255 268 278 276 272 267 264 259 253 248 245 237 234 232 226 228 229 232 234 233 232 232 229 229 226 225 220 215 220 225 232 244 255 252 245 243 239 262 282 276
237 257 269 272 280 281 282 283 279 274 273 265 255 250 247 246 246 238 233 233 232 233 237 236 233 228 230 233 233 229 223 221 223 228 236 241 245 240 244 242 254 273 276
254 266 274 273 271 274 279 284 276 270 271 266 261 255 253 256 255 248 239 238 236 237 236 237 237 233 226 232 234 237 237 236 232 229 235 238 240 230 224 238 237 241 252
261 270 271 269 272 280 278 273 275 276 264 261 261 256 257 260 258 254 246 237 238 240 239 235 235 235 228 227 230 237 241 241 240 237 239 242 241 233 220 231 242 255 271
268 274 274 269 270 271 267 269 273 271 269 265 264 258 258 266 262 258 252 238 240 246 244 240 236 237 234 230 231 239 248 251 249 243 246 249 247 240 228 222 230 242 264
271 278 281 269 261 262 265 272 275 268 267 270 271 265 260 266 267 263 252 242 243 248 251 248 237 236 238 236 234 234 245 250 247 251 251 255 250 241 229 220 217 227 245
287 292 289 281 271 265 269 273 273 273 274 273 275 276 268 266 268 266 259 247 240 246 250 252 248 246 248 247 246 243 248 252 247 247 253 254 250 239 229 223 218 217 223
297 289 288 288 282 276 271 276 274 267 270 274 278 285 278 270 267 270 269 264 263 251 252 255 256 257 259 258 254 252 255 254 249 247 250 251 247 245 244 237 233 233 234
295 285 286 293 289 280 271 274 278 267 263 271 271 276 285 286 282 282 277 274 271 267 259 261 266 266 268 266 257 255 251 240 238 245 249 250 243 242 243 251 250 249 256
285 290 291 290 291 288 279 267 263 259 259 265 268 272 282 286 287 288 284 283 278 277 277 271 268 270 273 271 271 260 243 236 235 246 254 253 244 233 232 232 241 250 263
282 284 286 279 277 279 277 268 268 264 255 262 263 262 266 273 274 283 292 285 278 273 292 293 295 294 282 284 282 270 257 249 247 251 248 246 243 241 242 231 227 224 236
276 280 278 279 280 277 282 297 290 288 291 286 285 285 280 282 290 287 286 288 287 289 306 282 272 267 267 274 279 277 263 259 260 259 253 245 243 244 248 237 229 228 242
251 263 268 270 272 273 274 276 294 307 307 307 305 300 296 299 299 300 295 290 297 314 300 271 269 268 272 277 280 280 275 266 263 257 255 255 252 249 245 242 239 241 247
258 257 255 258 259 261 260 264 269 279 296 301 309 310 310 307 310 314 314 324 314 309 278 270 270 271 269 266 268 272 278 276 262 257 255 251 244 244 246 247 241 240 247
263 264 261 259 257 259 260 263 265 267 274 290 303 309 314 313 316 323 336 332 284 283 277 275 278 281 285 281 274 270 270 270 266 256 252 249 243 239 244 247 250 247 241
276 280 279 267 264 262 259 258 262 267 276 285 294 300 316 323 317 322 320 297 284 285 285 282 280 277 277 279 282 281 277 271 269 264 258 256 250 242 245 247 246 247 247
279 282 287 289 279 271 264 259 259 262 270 278 284 294 308 305 296 295 292 286 277 275 278 280 277 275 273 274 273 270 271 274 272 270 262 256 253 248 246 245 247 246 249
268 272 269 265 268 267 274 275 270 264 268 275 287 300 310 302 287 286 284 283 281 277 275 275 277 274 268 267 269 270 269 269 267 268 273 270 264 255 249 245 245 245 244
270 270 273 274 269 270 273 269 270 273 276 278 284 289 295 289 283 281 282 283 284 284 282 276 274 278 280 275 271 266 266 267 268 266 270 268 262 263 258 251 246 242 243
272 261 262 270 268 262 265 268 268 272 278 284 284 282 282 282 284 283 281 282 283 281 278 273 270 272 278 281 276 269 267 270 269 259 255 258 259 258 255 255 256 250 247
280 265 264 262 262 267 277 281 280 281 284 283 281 281 280 280 282 284 284 283 283 282 281 277 273 274 276 277 278 275 275 277 274 264 256 251 252 255 254 254 255 254 252
279 263 259 261 261 260 262 271 278 281 283 284 282 280 281 282 282 282 283 283 285 284 283 279 276 278 280 277 277 282 282 280 276 266 253 245 246 253 254 258 255 253 249